Torna al catalogo

STARLINK-4615

AttivoComunicazioniVLEO
NORAD 53620·PAYLOAD·🇺🇸 United States

Lanciato Aug 28, 2022 da Cape Canaveral Space Force Station

Loading…

Prossimi Passaggi (prossime 24 ore)

TLE

AggiornatoSource: CelesTrak SupGP

Epoca: Sep 14, 2026, 22:05 UTC

1 53620C 22104AJ  26257.92062500  .00024603  00000+0  72693-3 0  2572
2 53620  53.1580  93.8453 0001046  76.1630  54.0939 15.34377407    18

Traccia STARLINK-4615 in tempo reale con AllMySat

Download on the App Store